Location: Newark
(44.3248°N, 23.7839°E)
Time: 04:50:19
(UTC+00:00)

X-37B - Pass Details

Date: 03 February 2022
Orbit: 328 x 343 km, 45.0° (Epoch: 15 May)

Event Time Altitude Azimuth Distance (km) Brightness Sun altitude
Rises 16:48:59 0° 277° (W) 2,120 5.9 -13.2°
Reaches altitude 10° 16:51:00 10° 279° (W) 1,278 4.4 -13.5°
Maximum altitude 16:53:51 80° 5° (N) 346 0.2 -14.0°
Enters shadow 16:54:53 35° 89° (E) 558 0.8 -14.2°
